owner,sensor,date,latitude,longitude,air_temperature,qcFlag 
WAVCIS,ioos:station:WAVCIS:CSI03:1,2013-11-01T00:00:00Z,29.4412,-92.0613,19.5,11111222 
WAVCIS,ioos:station:WAVCIS:CSI03:1,2013-11-01T01:00:00Z,29.4412,-92.0613,19.75,11111222 
WAVCIS,ioos:station:WAVCIS:CSI03:1,2013-11-01T02:00:00Z,29.4412,-92.0613,19.88,11111222 
WAVCIS,ioos:station:WAVCIS:CSI03:1,2013-11-01T03:00:00Z,29.4412,-92.0613,20.52,11111222 
WAVCIS,ioos:station:WAVCIS:CSI03:1,2013-11-01T04:00:00Z,29.4412,-92.0613,21.06,11111222 
WAVCIS,ioos:station:WAVCIS:CSI03:1,2013-11-01T05:00:00Z,29.4412,-92.0613,21.65,11111222 
WAVCIS,ioos:station:WAVCIS:CSI03:1,2013-11-01T06:00:00Z,29.4412,-92.0613,21.9,11111222 
WAVCIS,ioos:station:WAVCIS:CSI03:1,2013-11-01T07:00:00Z,29.4412,-92.0613,21.66,11111222 
WAVCIS,ioos:station:WAVCIS:CSI03:1,2013-11-01T08:00:00Z,29.4412,-92.0613,20.94,11111222 
WAVCIS,ioos:station:WAVCIS:CSI03:1,2013-11-01T09:00:00Z,29.4412,-92.0613,19.2,11111222 
WAVCIS,ioos:station:WAVCIS:CSI03:1,2013-11-01T10:00:00Z,29.4412,-92.0613,19.51,11111222 
WAVCIS,ioos:station:WAVCIS:CSI03:1,2013-11-01T11:00:00Z,29.4412,-92.0613,19.93,11111222 
WAVCIS,ioos:station:WAVCIS:CSI03:1,2013-11-01T12:00:00Z,29.4412,-92.0613,19.01,11111222 
WAVCIS,ioos:station:WAVCIS:CSI03:1,2013-11-01T13:00:00Z,29.4412,-92.0613,18.6,11111222 
WAVCIS,ioos:station:WAVCIS:CSI03:1,2013-11-01T14:00:00Z,29.4412,-92.0613,18.77,11111222 
WAVCIS,ioos:station:WAVCIS:CSI03:1,2013-11-01T15:00:00Z,29.4412,-92.0613,19.22,11111222 
WAVCIS,ioos:station:WAVCIS:CSI03:1,2013-11-01T16:00:00Z,29.4412,-92.0613,20.07,11111222 
WAVCIS,ioos:station:WAVCIS:CSI03:1,2013-11-01T17:00:00Z,29.4412,-92.0613,20.06,11111222 
WAVCIS,ioos:station:WAVCIS:CSI03:1,2013-11-01T18:00:00Z,29.4412,-92.0613,21.29,11111222 
WAVCIS,ioos:station:WAVCIS:CSI03:1,2013-11-01T19:00:00Z,29.4412,-92.0613,21.75,11111222 
WAVCIS,ioos:station:WAVCIS:CSI03:1,2013-11-01T20:00:00Z,29.4412,-92.0613,23.07,11111222 
WAVCIS,ioos:station:WAVCIS:CSI03:1,2013-11-01T21:00:00Z,29.4412,-92.0613,22.96,11111222 
WAVCIS,ioos:station:WAVCIS:CSI03:1,2013-11-01T22:00:00Z,29.4412,-92.0613,22.61,11111222 
WAVCIS,ioos:station:WAVCIS:CSI03:1,2013-11-01T23:00:00Z,29.4412,-92.0613,22.3,11111222 
WAVCIS,ioos:station:WAVCIS:CSI03:1,2013-11-02T00:00:00Z,29.4412,-92.0613,21.9,11111222 
WAVCIS,ioos:station:WAVCIS:CSI03:1,2013-11-02T01:00:00Z,29.4412,-92.0613,22.0,11111222 
WAVCIS,ioos:station:WAVCIS:CSI03:1,2013-11-02T02:00:00Z,29.4412,-92.0613,22.1,11111222 
WAVCIS,ioos:station:WAVCIS:CSI03:1,2013-11-02T03:00:00Z,29.4412,-92.0613,21.9,11111222 
WAVCIS,ioos:station:WAVCIS:CSI03:1,2013-11-02T04:00:00Z,29.4412,-92.0613,21.8,11111222 
WAVCIS,ioos:station:WAVCIS:CSI03:1,2013-11-02T05:00:00Z,29.4412,-92.0613,21.8,11111222 
WAVCIS,ioos:station:WAVCIS:CSI03:1,2013-11-02T06:00:00Z,29.4412,-92.0613,21.5,11111222 
WAVCIS,ioos:station:WAVCIS:CSI03:1,2013-11-02T07:00:00Z,29.4412,-92.0613,21.2,11111222 
WAVCIS,ioos:station:WAVCIS:CSI03:1,2013-11-02T08:00:00Z,29.4412,-92.0613,21.2,11111222 
WAVCIS,ioos:station:WAVCIS:CSI03:1,2013-11-02T09:00:00Z,29.4412,-92.0613,21.2,11111222 
WAVCIS,ioos:station:WAVCIS:CSI03:1,2013-11-02T10:00:00Z,29.4412,-92.0613,20.7,11111222 
WAVCIS,ioos:station:WAVCIS:CSI03:1,2013-11-02T11:00:00Z,29.4412,-92.0613,20.4,11111222 
WAVCIS,ioos:station:WAVCIS:CSI03:1,2013-11-02T12:00:00Z,29.4412,-92.0613,19.4,11111222 
WAVCIS,ioos:station:WAVCIS:CSI03:1,2013-11-02T13:00:00Z,29.4412,-92.0613,19.6,11111222 
WAVCIS,ioos:station:WAVCIS:CSI03:1,2013-11-02T14:00:00Z,29.4412,-92.0613,18.7,11111222 
WAVCIS,ioos:station:WAVCIS:CSI03:1,2013-11-02T15:00:00Z,29.4412,-92.0613,17.7,11111222 
WAVCIS,ioos:station:WAVCIS:CSI03:1,2013-11-02T16:00:00Z,29.4412,-92.0613,18.1,11111222 
WAVCIS,ioos:station:WAVCIS:CSI03:1,2013-11-02T17:00:00Z,29.4412,-92.0613,19.0,11111222 
WAVCIS,ioos:station:WAVCIS:CSI03:1,2013-11-02T18:00:00Z,29.4412,-92.0613,19.6,11111222 
WAVCIS,ioos:station:WAVCIS:CSI03:1,2013-11-02T19:00:00Z,29.4412,-92.0613,20.1,11111222 
WAVCIS,ioos:station:WAVCIS:CSI03:1,2013-11-02T20:00:00Z,29.4412,-92.0613,20.7,11111222 
WAVCIS,ioos:station:WAVCIS:CSI03:1,2013-11-02T21:00:00Z,29.4412,-92.0613,20.9,11111222 
WAVCIS,ioos:station:WAVCIS:CSI03:1,2013-11-02T22:00:00Z,29.4412,-92.0613,20.8,11111222 
WAVCIS,ioos:station:WAVCIS:CSI03:1,2013-11-02T23:00:00Z,29.4412,-92.0613,20.6,11111222 
WAVCIS,ioos:station:WAVCIS:CSI03:1,2013-11-03T00:00:00Z,29.4412,-92.0613,20.4,11111222 
WAVCIS,ioos:station:WAVCIS:CSI03:1,2013-11-03T01:00:00Z,29.4412,-92.0613,20.0,11111222 
WAVCIS,ioos:station:WAVCIS:CSI03:1,2013-11-03T02:00:00Z,29.4412,-92.0613,19.4,11111222 
WAVCIS,ioos:station:WAVCIS:CSI03:1,2013-11-03T03:00:00Z,29.4412,-92.0613,18.9,11111222 
WAVCIS,ioos:station:WAVCIS:CSI03:1,2013-11-03T04:00:00Z,29.4412,-92.0613,18.1,11111222 
WAVCIS,ioos:station:WAVCIS:CSI03:1,2013-11-03T05:00:00Z,29.4412,-92.0613,17.5,11111222 
WAVCIS,ioos:station:WAVCIS:CSI03:1,2013-11-03T06:00:00Z,29.4412,-92.0613,16.7,11111222 
WAVCIS,ioos:station:WAVCIS:CSI03:1,2013-11-03T07:00:00Z,29.4412,-92.0613,15.4,11111222 
WAVCIS,ioos:station:WAVCIS:CSI03:1,2013-11-03T08:00:00Z,29.4412,-92.0613,15.3,11111222 
WAVCIS,ioos:station:WAVCIS:CSI03:1,2013-11-03T09:00:00Z,29.4412,-92.0613,14.9,11111222 
WAVCIS,ioos:station:WAVCIS:CSI03:1,2013-11-03T10:00:00Z,29.4412,-92.0613,14.5,11111222 
WAVCIS,ioos:station:WAVCIS:CSI03:1,2013-11-03T11:00:00Z,29.4412,-92.0613,14.4,11111222 
WAVCIS,ioos:station:WAVCIS:CSI03:1,2013-11-03T12:00:00Z,29.4412,-92.0613,14.0,11111222 
WAVCIS,ioos:station:WAVCIS:CSI03:1,2013-11-03T13:00:00Z,29.4412,-92.0613,14.1,11111222 
WAVCIS,ioos:station:WAVCIS:CSI03:1,2013-11-03T15:00:00Z,29.4412,-92.0613,14.3,11111222 
WAVCIS,ioos:station:WAVCIS:CSI03:1,2013-11-03T16:00:00Z,29.4412,-92.0613,14.6,11111222 
WAVCIS,ioos:station:WAVCIS:CSI03:1,2013-11-03T17:00:00Z,29.4412,-92.0613,14.8,11111222 
WAVCIS,ioos:station:WAVCIS:CSI03:1,2013-11-03T18:00:00Z,29.4412,-92.0613,15.4,11111222 
WAVCIS,ioos:station:WAVCIS:CSI03:1,2013-11-03T19:00:00Z,29.4412,-92.0613,15.8,11111222 
WAVCIS,ioos:station:WAVCIS:CSI03:1,2013-11-03T20:00:00Z,29.4412,-92.0613,16.4,11111222 
WAVCIS,ioos:station:WAVCIS:CSI03:1,2013-11-03T21:00:00Z,29.4412,-92.0613,17.1,11111222 
WAVCIS,ioos:station:WAVCIS:CSI03:1,2013-11-03T22:00:00Z,29.4412,-92.0613,17.6,11111222 
WAVCIS,ioos:station:WAVCIS:CSI03:1,2013-11-03T23:00:00Z,29.4412,-92.0613,17.9,11111222 
WAVCIS,ioos:station:WAVCIS:CSI03:1,2013-11-04T00:00:00Z,29.4412,-92.0613,18.1,11111222 
WAVCIS,ioos:station:WAVCIS:CSI03:1,2013-11-04T01:00:00Z,29.4412,-92.0613,18.4,11111222 
WAVCIS,ioos:station:WAVCIS:CSI03:1,2013-11-04T02:00:00Z,29.4412,-92.0613,18.3,11111222 
WAVCIS,ioos:station:WAVCIS:CSI03:1,2013-11-04T03:00:00Z,29.4412,-92.0613,18.0,11111222 
WAVCIS,ioos:station:WAVCIS:CSI03:1,2013-11-04T04:00:00Z,29.4412,-92.0613,17.8,11111222 
WAVCIS,ioos:station:WAVCIS:CSI03:1,2013-11-04T05:00:00Z,29.4412,-92.0613,17.6,11111222 
WAVCIS,ioos:station:WAVCIS:CSI03:1,2013-11-04T06:00:00Z,29.4412,-92.0613,17.6,11111222 
WAVCIS,ioos:station:WAVCIS:CSI03:1,2013-11-04T07:00:00Z,29.4412,-92.0613,17.4,11111222 
WAVCIS,ioos:station:WAVCIS:CSI03:1,2013-11-04T08:00:00Z,29.4412,-92.0613,16.7,11111222 
WAVCIS,ioos:station:WAVCIS:CSI03:1,2013-11-04T09:00:00Z,29.4412,-92.0613,17.0,11111222 
WAVCIS,ioos:station:WAVCIS:CSI03:1,2013-11-04T10:00:00Z,29.4412,-92.0613,16.9,11111222 
WAVCIS,ioos:station:WAVCIS:CSI03:1,2013-11-04T11:00:00Z,29.4412,-92.0613,16.7,11111222 
WAVCIS,ioos:station:WAVCIS:CSI03:1,2013-11-04T12:00:00Z,29.4412,-92.0613,17.3,11111222 
WAVCIS,ioos:station:WAVCIS:CSI03:1,2013-11-04T13:00:00Z,29.4412,-92.0613,17.9,11111222 
WAVCIS,ioos:station:WAVCIS:CSI03:1,2013-11-04T14:00:00Z,29.4412,-92.0613,18.5,11111222 
WAVCIS,ioos:station:WAVCIS:CSI03:1,2013-11-04T15:00:00Z,29.4412,-92.0613,18.9,11111222 
WAVCIS,ioos:station:WAVCIS:CSI03:1,2013-11-04T16:00:00Z,29.4412,-92.0613,19.3,11111222 
WAVCIS,ioos:station:WAVCIS:CSI03:1,2013-11-05T13:00:00Z,29.4412,-92.0613,19.5,11111222 
WAVCIS,ioos:station:WAVCIS:CSI03:1,2013-11-05T15:00:00Z,29.4412,-92.0613,20.9,11111222 
WAVCIS,ioos:station:WAVCIS:CSI03:1,2013-11-05T16:00:00Z,29.4412,-92.0613,21.1,11111222 
WAVCIS,ioos:station:WAVCIS:CSI03:1,2013-11-05T17:00:00Z,29.4412,-92.0613,21.6,11111222 
WAVCIS,ioos:station:WAVCIS:CSI03:1,2013-11-05T18:00:00Z,29.4412,-92.0613,22.0,11111222 
WAVCIS,ioos:station:WAVCIS:CSI03:1,2013-11-05T19:00:00Z,29.4412,-92.0613,21.8,11111222 
WAVCIS,ioos:station:WAVCIS:CSI03:1,2013-11-05T20:00:00Z,29.4412,-92.0613,22.0,11111222 
WAVCIS,ioos:station:WAVCIS:CSI03:1,2013-11-05T21:00:00Z,29.4412,-92.0613,22.1,11111222 
WAVCIS,ioos:station:WAVCIS:CSI03:1,2013-11-05T22:00:00Z,29.4412,-92.0613,22.2,11111222 
WAVCIS,ioos:station:WAVCIS:CSI03:1,2013-11-05T23:00:00Z,29.4412,-92.0613,22.1,11111222 
WAVCIS,ioos:station:WAVCIS:CSI03:1,2013-11-06T00:00:00Z,29.4412,-92.0613,22.1,11111222 
WAVCIS,ioos:station:WAVCIS:CSI03:1,2013-11-06T01:00:00Z,29.4412,-92.0613,21.9,11111222 
WAVCIS,ioos:station:WAVCIS:CSI03:1,2013-11-06T02:00:00Z,29.4412,-92.0613,21.4,11111222 
WAVCIS,ioos:station:WAVCIS:CSI03:1,2013-11-06T03:00:00Z,29.4412,-92.0613,21.3,11111222 
WAVCIS,ioos:station:WAVCIS:CSI03:1,2013-11-06T04:00:00Z,29.4412,-92.0613,21.1,11111222 
WAVCIS,ioos:station:WAVCIS:CSI03:1,2013-11-06T05:00:00Z,29.4412,-92.0613,21.0,11111222 
WAVCIS,ioos:station:WAVCIS:CSI03:1,2013-11-06T06:00:00Z,29.4412,-92.0613,21.0,11111222 
WAVCIS,ioos:station:WAVCIS:CSI03:1,2013-11-06T07:00:00Z,29.4412,-92.0613,21.0,11111222 
WAVCIS,ioos:station:WAVCIS:CSI03:1,2013-11-06T08:00:00Z,29.4412,-92.0613,21.0,11111222 
WAVCIS,ioos:station:WAVCIS:CSI03:1,2013-11-06T09:00:00Z,29.4412,-92.0613,21.0,11111222 
WAVCIS,ioos:station:WAVCIS:CSI03:1,2013-11-06T10:00:00Z,29.4412,-92.0613,20.9,11111222 
WAVCIS,ioos:station:WAVCIS:CSI03:1,2013-11-06T11:00:00Z,29.4412,-92.0613,20.7,11111222 
WAVCIS,ioos:station:WAVCIS:CSI03:1,2013-11-06T12:00:00Z,29.4412,-92.0613,20.6,11111222 
WAVCIS,ioos:station:WAVCIS:CSI03:1,2013-11-06T13:00:00Z,29.4412,-92.0613,20.7,11111222 
WAVCIS,ioos:station:WAVCIS:CSI03:1,2013-11-06T14:00:00Z,29.4412,-92.0613,21.0,11111222 
WAVCIS,ioos:station:WAVCIS:CSI03:1,2013-11-06T15:00:00Z,29.4412,-92.0613,21.0,11111222 
WAVCIS,ioos:station:WAVCIS:CSI03:1,2013-11-06T16:00:00Z,29.4412,-92.0613,21.4,11111222 
WAVCIS,ioos:station:WAVCIS:CSI03:1,2013-11-06T17:00:00Z,29.4412,-92.0613,21.8,11111222 
WAVCIS,ioos:station:WAVCIS:CSI03:1,2013-11-06T18:00:00Z,29.4412,-92.0613,22.2,11111222 
WAVCIS,ioos:station:WAVCIS:CSI03:1,2013-11-06T19:00:00Z,29.4412,-92.0613,22.6,11111222 
WAVCIS,ioos:station:WAVCIS:CSI03:1,2013-11-06T20:00:00Z,29.4412,-92.0613,22.9,11111222 
WAVCIS,ioos:station:WAVCIS:CSI03:1,2013-11-06T21:00:00Z,29.4412,-92.0613,23.3,11111222 
WAVCIS,ioos:station:WAVCIS:CSI03:1,2013-11-06T22:00:00Z,29.4412,-92.0613,24.0,11111222 
WAVCIS,ioos:station:WAVCIS:CSI03:1,2013-11-06T23:00:00Z,29.4412,-92.0613,23.5,11111222 
WAVCIS,ioos:station:WAVCIS:CSI03:1,2013-11-07T00:00:00Z,29.4412,-92.0613,23.1,11111222 
WAVCIS,ioos:station:WAVCIS:CSI03:1,2013-11-07T01:00:00Z,29.4412,-92.0613,22.5,11111222 
WAVCIS,ioos:station:WAVCIS:CSI03:1,2013-11-07T02:00:00Z,29.4412,-92.0613,22.6,11111222 
WAVCIS,ioos:station:WAVCIS:CSI03:1,2013-11-07T03:00:00Z,29.4412,-92.0613,22.6,11111222 
WAVCIS,ioos:station:WAVCIS:CSI03:1,2013-11-07T04:00:00Z,29.4412,-92.0613,21.9,11111222 
WAVCIS,ioos:station:WAVCIS:CSI03:1,2013-11-07T05:00:00Z,29.4412,-92.0613,21.2,11111222 
WAVCIS,ioos:station:WAVCIS:CSI03:1,2013-11-07T06:00:00Z,29.4412,-92.0613,20.7,11111222 
WAVCIS,ioos:station:WAVCIS:CSI03:1,2013-11-07T07:00:00Z,29.4412,-92.0613,20.8,11111222 
WAVCIS,ioos:station:WAVCIS:CSI03:1,2013-11-07T08:00:00Z,29.4412,-92.0613,18.3,11111222 
WAVCIS,ioos:station:WAVCIS:CSI03:1,2013-11-07T09:00:00Z,29.4412,-92.0613,17.8,11111222 
WAVCIS,ioos:station:WAVCIS:CSI03:1,2013-11-07T10:00:00Z,29.4412,-92.0613,16.6,11111222 
WAVCIS,ioos:station:WAVCIS:CSI03:1,2013-11-07T11:00:00Z,29.4412,-92.0613,16.0,11111222 
WAVCIS,ioos:station:WAVCIS:CSI03:1,2013-11-07T12:00:00Z,29.4412,-92.0613,15.6,11111222 
WAVCIS,ioos:station:WAVCIS:CSI03:1,2013-11-07T13:00:00Z,29.4412,-92.0613,15.3,11111222 
WAVCIS,ioos:station:WAVCIS:CSI03:1,2013-11-07T14:00:00Z,29.4412,-92.0613,14.2,11111222 
WAVCIS,ioos:station:WAVCIS:CSI03:1,2013-11-07T15:00:00Z,29.4412,-92.0613,14.0,11111222 
WAVCIS,ioos:station:WAVCIS:CSI03:1,2013-11-07T16:00:00Z,29.4412,-92.0613,13.0,11111222 
WAVCIS,ioos:station:WAVCIS:CSI03:1,2013-11-07T17:00:00Z,29.4412,-92.0613,12.7,11111222 
WAVCIS,ioos:station:WAVCIS:CSI03:1,2013-11-07T18:00:00Z,29.4412,-92.0613,13.8,11111222 
WAVCIS,ioos:station:WAVCIS:CSI03:1,2013-11-07T19:00:00Z,29.4412,-92.0613,14.8,11111222 
WAVCIS,ioos:station:WAVCIS:CSI03:1,2013-11-07T20:00:00Z,29.4412,-92.0613,15.7,11111222 
WAVCIS,ioos:station:WAVCIS:CSI03:1,2013-11-07T21:00:00Z,29.4412,-92.0613,16.5,11111222 
WAVCIS,ioos:station:WAVCIS:CSI03:1,2013-11-07T22:00:00Z,29.4412,-92.0613,16.8,11111222 
WAVCIS,ioos:station:WAVCIS:CSI03:1,2013-11-07T23:00:00Z,29.4412,-92.0613,16.8,11111222 
WAVCIS,ioos:station:WAVCIS:CSI03:1,2013-11-08T00:00:00Z,29.4412,-92.0613,16.1,11111222 
WAVCIS,ioos:station:WAVCIS:CSI03:1,2013-11-08T01:00:00Z,29.4412,-92.0613,15.8,11111222 
WAVCIS,ioos:station:WAVCIS:CSI03:1,2013-11-08T02:00:00Z,29.4412,-92.0613,14.9,11111222 
WAVCIS,ioos:station:WAVCIS:CSI03:1,2013-11-08T03:00:00Z,29.4412,-92.0613,14.2,11111222 
WAVCIS,ioos:station:WAVCIS:CSI03:1,2013-11-08T04:00:00Z,29.4412,-92.0613,13.7,11111222 
WAVCIS,ioos:station:WAVCIS:CSI03:1,2013-11-08T05:00:00Z,29.4412,-92.0613,12.9,11111222 
WAVCIS,ioos:station:WAVCIS:CSI03:1,2013-11-08T06:00:00Z,29.4412,-92.0613,12.5,11111222 
WAVCIS,ioos:station:WAVCIS:CSI03:1,2013-11-08T07:00:00Z,29.4412,-92.0613,12.3,11111222 
WAVCIS,ioos:station:WAVCIS:CSI03:1,2013-11-08T08:00:00Z,29.4412,-92.0613,12.0,11111222 
WAVCIS,ioos:station:WAVCIS:CSI03:1,2013-11-08T09:00:00Z,29.4412,-92.0613,11.9,11111222 
WAVCIS,ioos:station:WAVCIS:CSI03:1,2013-11-08T10:00:00Z,29.4412,-92.0613,11.7,11111222 
WAVCIS,ioos:station:WAVCIS:CSI03:1,2013-11-08T11:00:00Z,29.4412,-92.0613,11.3,11111222 
WAVCIS,ioos:station:WAVCIS:CSI03:1,2013-11-08T12:00:00Z,29.4412,-92.0613,10.9,11111222 
WAVCIS,ioos:station:WAVCIS:CSI03:1,2013-11-08T13:00:00Z,29.4412,-92.0613,11.3,11111222 
WAVCIS,ioos:station:WAVCIS:CSI03:1,2013-11-08T14:00:00Z,29.4412,-92.0613,11.7,11111222 
WAVCIS,ioos:station:WAVCIS:CSI03:1,2013-11-08T15:00:00Z,29.4412,-92.0613,11.7,11111222 
WAVCIS,ioos:station:WAVCIS:CSI03:1,2013-11-08T16:00:00Z,29.4412,-92.0613,12.6,11111222 
WAVCIS,ioos:station:WAVCIS:CSI03:1,2013-11-08T17:00:00Z,29.4412,-92.0613,14.1,11111222 
WAVCIS,ioos:station:WAVCIS:CSI03:1,2013-11-08T18:00:00Z,29.4412,-92.0613,14.7,11111222 
WAVCIS,ioos:station:WAVCIS:CSI03:1,2013-11-08T19:00:00Z,29.4412,-92.0613,15.4,11111222 
WAVCIS,ioos:station:WAVCIS:CSI03:1,2013-11-08T20:00:00Z,29.4412,-92.0613,16.2,11111222 
WAVCIS,ioos:station:WAVCIS:CSI03:1,2013-11-08T21:00:00Z,29.4412,-92.0613,16.8,11111222 
WAVCIS,ioos:station:WAVCIS:CSI03:1,2013-11-08T22:00:00Z,29.4412,-92.0613,17.3,11111222 
WAVCIS,ioos:station:WAVCIS:CSI03:1,2013-11-08T23:00:00Z,29.4412,-92.0613,17.3,11111222 
WAVCIS,ioos:station:WAVCIS:CSI03:1,2013-11-09T00:00:00Z,29.4412,-92.0613,16.9,11111222 
WAVCIS,ioos:station:WAVCIS:CSI03:1,2013-11-09T01:00:00Z,29.4412,-92.0613,16.5,11111222 
WAVCIS,ioos:station:WAVCIS:CSI03:1,2013-11-09T02:00:00Z,29.4412,-92.0613,16.4,11111222 
WAVCIS,ioos:station:WAVCIS:CSI03:1,2013-11-09T03:00:00Z,29.4412,-92.0613,16.0,11111222 
WAVCIS,ioos:station:WAVCIS:CSI03:1,2013-11-09T04:00:00Z,29.4412,-92.0613,15.9,11111222 
WAVCIS,ioos:station:WAVCIS:CSI03:1,2013-11-09T05:00:00Z,29.4412,-92.0613,16.0,11111222 
WAVCIS,ioos:station:WAVCIS:CSI03:1,2013-11-09T06:00:00Z,29.4412,-92.0613,16.0,11111222 
WAVCIS,ioos:station:WAVCIS:CSI03:1,2013-11-09T07:00:00Z,29.4412,-92.0613,15.9,11111222 
WAVCIS,ioos:station:WAVCIS:CSI03:1,2013-11-09T08:00:00Z,29.4412,-92.0613,15.8,11111222 
WAVCIS,ioos:station:WAVCIS:CSI03:1,2013-11-09T09:00:00Z,29.4412,-92.0613,15.4,11111222 
WAVCIS,ioos:station:WAVCIS:CSI03:1,2013-11-09T10:00:00Z,29.4412,-92.0613,15.1,11111222 
WAVCIS,ioos:station:WAVCIS:CSI03:1,2013-11-09T11:00:00Z,29.4412,-92.0613,14.7,11111222 
WAVCIS,ioos:station:WAVCIS:CSI03:1,2013-11-09T12:00:00Z,29.4412,-92.0613,14.4,11111222 
WAVCIS,ioos:station:WAVCIS:CSI03:1,2013-11-09T13:00:00Z,29.4412,-92.0613,14.5,11111222 
WAVCIS,ioos:station:WAVCIS:CSI03:1,2013-11-09T14:00:00Z,29.4412,-92.0613,14.6,11111222 
WAVCIS,ioos:station:WAVCIS:CSI03:1,2013-11-09T15:00:00Z,29.4412,-92.0613,14.6,11111222 
WAVCIS,ioos:station:WAVCIS:CSI03:1,2013-11-09T16:00:00Z,29.4412,-92.0613,15.8,11111222 
WAVCIS,ioos:station:WAVCIS:CSI03:1,2013-11-09T17:00:00Z,29.4412,-92.0613,17.2,11111222 
WAVCIS,ioos:station:WAVCIS:CSI03:1,2013-11-09T18:00:00Z,29.4412,-92.0613,17.5,11111222 
WAVCIS,ioos:station:WAVCIS:CSI03:1,2013-11-09T19:00:00Z,29.4412,-92.0613,18.1,11111222 
WAVCIS,ioos:station:WAVCIS:CSI03:1,2013-11-09T20:00:00Z,29.4412,-92.0613,19.6,11111222 
WAVCIS,ioos:station:WAVCIS:CSI03:1,2013-11-09T21:00:00Z,29.4412,-92.0613,19.8,11111222 
WAVCIS,ioos:station:WAVCIS:CSI03:1,2013-11-09T22:00:00Z,29.4412,-92.0613,20.1,11111222 
WAVCIS,ioos:station:WAVCIS:CSI03:1,2013-11-09T23:00:00Z,29.4412,-92.0613,19.5,11111222 
WAVCIS,ioos:station:WAVCIS:CSI03:1,2013-11-10T00:00:00Z,29.4412,-92.0613,18.9,11111222 
WAVCIS,ioos:station:WAVCIS:CSI03:1,2013-11-10T01:00:00Z,29.4412,-92.0613,18.9,11111222 
WAVCIS,ioos:station:WAVCIS:CSI03:1,2013-11-10T02:00:00Z,29.4412,-92.0613,18.8,11111222 
WAVCIS,ioos:station:WAVCIS:CSI03:1,2013-11-10T03:00:00Z,29.4412,-92.0613,19.0,11111222 
WAVCIS,ioos:station:WAVCIS:CSI03:1,2013-11-10T04:00:00Z,29.4412,-92.0613,18.3,11111222 
WAVCIS,ioos:station:WAVCIS:CSI03:1,2013-11-10T05:00:00Z,29.4412,-92.0613,18.0,11111222 
WAVCIS,ioos:station:WAVCIS:CSI03:1,2013-11-10T06:00:00Z,29.4412,-92.0613,17.5,11111222 
WAVCIS,ioos:station:WAVCIS:CSI03:1,2013-11-10T07:00:00Z,29.4412,-92.0613,17.0,11111222 
WAVCIS,ioos:station:WAVCIS:CSI03:1,2013-11-10T08:00:00Z,29.4412,-92.0613,16.3,11111222 
WAVCIS,ioos:station:WAVCIS:CSI03:1,2013-11-10T09:00:00Z,29.4412,-92.0613,15.9,11111222 
WAVCIS,ioos:station:WAVCIS:CSI03:1,2013-11-10T10:00:00Z,29.4412,-92.0613,16.1,11111222 
WAVCIS,ioos:station:WAVCIS:CSI03:1,2013-11-10T11:00:00Z,29.4412,-92.0613,15.9,11111222 
WAVCIS,ioos:station:WAVCIS:CSI03:1,2013-11-10T12:00:00Z,29.4412,-92.0613,15.7,11111222 
WAVCIS,ioos:station:WAVCIS:CSI03:1,2013-11-10T13:00:00Z,29.4412,-92.0613,15.8,11111222 
WAVCIS,ioos:station:WAVCIS:CSI03:1,2013-11-10T14:00:00Z,29.4412,-92.0613,15.9,11111222 
WAVCIS,ioos:station:WAVCIS:CSI03:1,2013-11-10T15:00:00Z,29.4412,-92.0613,16.7,11111222 
WAVCIS,ioos:station:WAVCIS:CSI03:1,2013-11-10T16:00:00Z,29.4412,-92.0613,17.8,11111222 
WAVCIS,ioos:station:WAVCIS:CSI03:1,2013-11-10T17:00:00Z,29.4412,-92.0613,18.8,11111222 
WAVCIS,ioos:station:WAVCIS:CSI03:1,2013-11-10T18:00:00Z,29.4412,-92.0613,19.2,11111222 
WAVCIS,ioos:station:WAVCIS:CSI03:1,2013-11-10T19:00:00Z,29.4412,-92.0613,19.9,11111222 
WAVCIS,ioos:station:WAVCIS:CSI03:1,2013-11-10T20:00:00Z,29.4412,-92.0613,21.2,11111222 
WAVCIS,ioos:station:WAVCIS:CSI03:1,2013-11-10T21:00:00Z,29.4412,-92.0613,22.0,11111222 
WAVCIS,ioos:station:WAVCIS:CSI03:1,2013-11-10T22:00:00Z,29.4412,-92.0613,21.2,11111222 
WAVCIS,ioos:station:WAVCIS:CSI03:1,2013-11-10T23:00:00Z,29.4412,-92.0613,22.1,11111222 
WAVCIS,ioos:station:WAVCIS:CSI03:1,2013-11-11T00:00:00Z,29.4412,-92.0613,21.0,11111222 
WAVCIS,ioos:station:WAVCIS:CSI03:1,2013-11-11T01:00:00Z,29.4412,-92.0613,20.8,11111222 
WAVCIS,ioos:station:WAVCIS:CSI03:1,2013-11-11T02:00:00Z,29.4412,-92.0613,20.4,11111222 
WAVCIS,ioos:station:WAVCIS:CSI03:1,2013-11-11T03:00:00Z,29.4412,-92.0613,19.9,11111222 
WAVCIS,ioos:station:WAVCIS:CSI03:1,2013-11-11T04:00:00Z,29.4412,-92.0613,19.3,11111222 
WAVCIS,ioos:station:WAVCIS:CSI03:1,2013-11-11T05:00:00Z,29.4412,-92.0613,18.6,11111222 
WAVCIS,ioos:station:WAVCIS:CSI03:1,2013-11-11T06:00:00Z,29.4412,-92.0613,18.0,11111222 
WAVCIS,ioos:station:WAVCIS:CSI03:1,2013-11-11T07:00:00Z,29.4412,-92.0613,17.6,11111222 
WAVCIS,ioos:station:WAVCIS:CSI03:1,2013-11-11T08:00:00Z,29.4412,-92.0613,17.1,11111222 
WAVCIS,ioos:station:WAVCIS:CSI03:1,2013-11-11T09:00:00Z,29.4412,-92.0613,16.8,11111222 
WAVCIS,ioos:station:WAVCIS:CSI03:1,2013-11-11T10:00:00Z,29.4412,-92.0613,16.9,11111222 
WAVCIS,ioos:station:WAVCIS:CSI03:1,2013-11-11T11:00:00Z,29.4412,-92.0613,17.0,11111222 
WAVCIS,ioos:station:WAVCIS:CSI03:1,2013-11-11T12:00:00Z,29.4412,-92.0613,17.3,11111222 
WAVCIS,ioos:station:WAVCIS:CSI03:1,2013-11-11T13:00:00Z,29.4412,-92.0613,17.1,11111222 
WAVCIS,ioos:station:WAVCIS:CSI03:1,2013-11-11T14:00:00Z,29.4412,-92.0613,17.0,11111222 
WAVCIS,ioos:station:WAVCIS:CSI03:1,2013-11-11T15:00:00Z,29.4412,-92.0613,17.7,11111222 
WAVCIS,ioos:station:WAVCIS:CSI03:1,2013-11-11T16:00:00Z,29.4412,-92.0613,18.5,11111222 
WAVCIS,ioos:station:WAVCIS:CSI03:1,2013-11-11T17:00:00Z,29.4412,-92.0613,18.9,11111222 
WAVCIS,ioos:station:WAVCIS:CSI03:1,2013-11-11T18:00:00Z,29.4412,-92.0613,20.7,11111222 
WAVCIS,ioos:station:WAVCIS:CSI03:1,2013-11-11T19:00:00Z,29.4412,-92.0613,21.5,11111222 
WAVCIS,ioos:station:WAVCIS:CSI03:1,2013-11-11T20:00:00Z,29.4412,-92.0613,21.2,11111222 
WAVCIS,ioos:station:WAVCIS:CSI03:1,2013-11-11T21:00:00Z,29.4412,-92.0613,25.2,11111222 
WAVCIS,ioos:station:WAVCIS:CSI03:1,2013-11-11T22:00:00Z,29.4412,-92.0613,23.6,11111222 
WAVCIS,ioos:station:WAVCIS:CSI03:1,2013-11-11T23:00:00Z,29.4412,-92.0613,22.8,11111222 
WAVCIS,ioos:station:WAVCIS:CSI03:1,2013-11-12T00:00:00Z,29.4412,-92.0613,21.5,11111222 
WAVCIS,ioos:station:WAVCIS:CSI03:1,2013-11-12T01:00:00Z,29.4412,-92.0613,20.7,11111222 
WAVCIS,ioos:station:WAVCIS:CSI03:1,2013-11-12T02:00:00Z,29.4412,-92.0613,20.2,11111222 
WAVCIS,ioos:station:WAVCIS:CSI03:1,2013-11-12T03:00:00Z,29.4412,-92.0613,19.8,11111222 
WAVCIS,ioos:station:WAVCIS:CSI03:1,2013-11-12T04:00:00Z,29.4412,-92.0613,19.6,11111222 
WAVCIS,ioos:station:WAVCIS:CSI03:1,2013-11-12T05:00:00Z,29.4412,-92.0613,19.5,11111222 
WAVCIS,ioos:station:WAVCIS:CSI03:1,2013-11-12T06:00:00Z,29.4412,-92.0613,19.0,11111222 
WAVCIS,ioos:station:WAVCIS:CSI03:1,2013-11-12T07:00:00Z,29.4412,-92.0613,18.7,11111222 
WAVCIS,ioos:station:WAVCIS:CSI03:1,2013-11-12T08:00:00Z,29.4412,-92.0613,18.3,11111222 
WAVCIS,ioos:station:WAVCIS:CSI03:1,2013-11-12T09:00:00Z,29.4412,-92.0613,18.0,11111222 
WAVCIS,ioos:station:WAVCIS:CSI03:1,2013-11-12T10:00:00Z,29.4412,-92.0613,18.0,11111222 
WAVCIS,ioos:station:WAVCIS:CSI03:1,2013-11-12T11:00:00Z,29.4412,-92.0613,17.4,11111222 
WAVCIS,ioos:station:WAVCIS:CSI03:1,2013-11-12T12:00:00Z,29.4412,-92.0613,16.8,11111222 
WAVCIS,ioos:station:WAVCIS:CSI03:1,2013-11-12T13:00:00Z,29.4412,-92.0613,16.6,11111222 
WAVCIS,ioos:station:WAVCIS:CSI03:1,2013-11-12T14:00:00Z,29.4412,-92.0613,16.9,11111222 
WAVCIS,ioos:station:WAVCIS:CSI03:1,2013-11-12T15:00:00Z,29.4412,-92.0613,17.0,11111222 
WAVCIS,ioos:station:WAVCIS:CSI03:1,2013-11-12T16:00:00Z,29.4412,-92.0613,17.1,11111222 
WAVCIS,ioos:station:WAVCIS:CSI03:1,2013-11-12T17:00:00Z,29.4412,-92.0613,18.2,11111222 
WAVCIS,ioos:station:WAVCIS:CSI03:1,2013-11-12T18:00:00Z,29.4412,-92.0613,19.4,11111222 
WAVCIS,ioos:station:WAVCIS:CSI03:1,2013-11-12T19:00:00Z,29.4412,-92.0613,20.2,11111222 
WAVCIS,ioos:station:WAVCIS:CSI03:1,2013-11-12T20:00:00Z,29.4412,-92.0613,20.2,11111222 
WAVCIS,ioos:station:WAVCIS:CSI03:1,2013-11-12T21:00:00Z,29.4412,-92.0613,18.8,11111222 
WAVCIS,ioos:station:WAVCIS:CSI03:1,2013-11-12T22:00:00Z,29.4412,-92.0613,16.7,11111222 
WAVCIS,ioos:station:WAVCIS:CSI03:1,2013-11-12T23:00:00Z,29.4412,-92.0613,15.8,11111222 
WAVCIS,ioos:station:WAVCIS:CSI03:1,2013-11-13T00:00:00Z,29.4412,-92.0613,14.9,11111222 
WAVCIS,ioos:station:WAVCIS:CSI03:1,2013-11-13T01:00:00Z,29.4412,-92.0613,12.9,11111222 
WAVCIS,ioos:station:WAVCIS:CSI03:1,2013-11-13T02:00:00Z,29.4412,-92.0613,11.6,11111222 
WAVCIS,ioos:station:WAVCIS:CSI03:1,2013-11-13T03:00:00Z,29.4412,-92.0613,10.2,11111222 
WAVCIS,ioos:station:WAVCIS:CSI03:1,2013-11-13T04:00:00Z,29.4412,-92.0613,8.7,11111222 